Regional Weather Roundup
Issued by NWS Boston, MA

Home | Current Version | Previous Version | Text Only | Print | Product List | Glossary On
Versions: 1 2 3 4 5 6 7 8 9 10 11 12 13 14 15 16 17 18 19 20 21 22 23 24 25 26 27 28 29 30 31 32 33 34 35 36 37 38 39 40 41 42 43 44 45 46 47 48 49 50
509
ASUS41 KBOX 120810
RWRBOX

REGIONAL WEATHER ROUNDUP
NATIONAL WEATHER SERVICE TAUNTON MA
300 AM EST FRI FEB 12 2016

NOTE:  "FAIR" INDICATES FEW OR NO CLOUDS BELOW 12,000 FEET WITH NO
SIGNIFICANT WEATHER AND/OR OBSTRUCTIONS TO VISIBILITY.  THE FOLLOWING
OBSERVATION LOCATIONS DO NOT REPORT PRESENT WEATHER...PROVINCETOWN...
SMITHFIELD...BLOCK ISLAND...KEENE...AND OXFORD.

MAZALL-120900-
EASTERN MASSACHUSETTS

CITY           SKY/WX    TMP DP  RH WIND       PRES   REMARKS
BOSTON         CLEAR      8  -8  48 W16G23    30.12R WCI -10
BEVERLY        CLEAR      7 -10  46 NW10G21   30.10R WCI  -8
LAWRENCE       CLEAR      6  -8  52 W10       30.11R WCI  -9
BEDFORD        CLEAR      6 -11  45 W12       30.11R WCI  -9
BLUE HILL        N/A      3  -8  60 NW14G25   30.05R WCI -15
NORWOOD        CLEAR      8  -9  45 W8        30.13R WCI  -4
MARSHFIELD     CLEAR     10  -6  48 W9G21     30.13R WCI  -2
PLYMOUTH       CLEAR      8  -7  50 W15G24    30.11R WCI  -9
TAUNTON        CLEAR     10  -8  44 NW10      30.12R WCI  -4
NEW BEDFORD    CLEAR     10  -7  46 W15G21    30.13R WCI  -7
$$

MAZALL-120900-
CAPE COD AND THE ISLANDS

CITY           SKY/WX    TMP DP  RH WIND       PRES   REMARKS
FALMOUTH       CLEAR      9  -6  52 NW18G26   30.11R WCI -10
HYANNIS        CLEAR     10  -6  48 NW13G22   30.08R WCI  -5
CHATHAM        CLEAR     11  -2  56 W13G22    30.08R WCI  -4
PROVINCETOWN   CLOUDY    14   4  64 NW30G37   30.08R WCI  -7
NANTUCKET      MOCLDY    16   1  51 NW23G35   30.09R WCI  -2
MARTHAS VNYRD  CLEAR     13  -4  46 NW17G33   30.12R WCI  -4
$$

MAZALL-120900-
CENTRAL AND WESTERN MASSACHUSETTS

CITY           SKY/WX    TMP DP  RH WIND       PRES   REMARKS
WORCESTER      CLEAR      2 -10  57 W14       30.03R WCI -16
FITCHBURG      CLEAR      4  -9  55 W3        30.11R
ORANGE         PTCLDY     3 -10  54 W7        30.09R WCI  -9
SPRINGFIELD    CLEAR      0 -10  65 SW1       30.13R
WESTFIELD      CLEAR      7  -6  55 NW9       30.15R WCI  -7
NORTH ADAMS    CLEAR      4  -8  57 W13       30.12R WCI -13
PITTSFIELD     MOCLDY     2  -7  66 W7        30.06R WCI -11
$$

RIZALL-120900-
RHODE ISLAND

CITY           SKY/WX    TMP DP  RH WIND       PRES   REMARKS
PROVIDENCE     CLEAR     10  -7  46 W7        30.16R WCI  -1
NEWPORT        CLEAR     11  -4  51 NW15G25   30.14R WCI  -5
BLOCK ISLAND   PTCLDY    16   3  57 NW17G29   30.14S WCI   0
SMITHFIELD     CLEAR      7  -9  47 W8        30.09R WCI  -6
WESTERLY       CLEAR     12  -3  51 W7G17     30.18R WCI   1
$$

CTZALL-120900-
CONNECTICUT

CITY           SKY/WX    TMP DP  RH WIND       PRES   REMARKS
BRADLEY INTL   CLEAR      8  -4  58 W12       30.17R WCI  -7
HARTFORD       CLEAR     12  -3  51 NW8G20    30.21R WCI   0
BRIDGEPORT     CLEAR     15   0  51 NW7       30.21R WCI   5
DANBURY        CLEAR     10  -1  61 E3        30.18R
GROTON         CLEAR     12   0  58 NW13G23   30.20R WCI  -3
NEW HAVEN      CLEAR     13   1  59 NW12      30.20R WCI  -1
CHESTER        FAIR      10   1  67 W3        30.16S
MERIDEN        CLEAR      8  -2  63 CALM      30.20R
WILLIMANTIC    CLEAR      9  -5  53 W6        30.17R WCI  -1
OXFORD         CLEAR      7  -8  51 CALM      30.15R
$$

MEZ002-015-021-024-NHZ003-005-008-011-012-014-VTZ005-008-120900-
NORTHERN NEW ENGLAND

CITY           SKY/WX    TMP DP  RH WIND       PRES   REMARKS
PORTLAND ME    PTCLDY     2 -11  54 W12       30.03R WCI -15
BANGOR ME      CLEAR      0 -11  59 W7        29.94R WCI -13
CONCORD NH     CLEAR      3 -10  54 NW14      30.07R WCI -15
MANCHESTER NH  CLEAR      6  -7  54 W9        30.08R WCI  -8
NASHUA NH      CLEAR      3  -8  60 W3        30.11R
PORTSMOUTH NH  PTCLDY     4 -11  49 W12G22    30.06R WCI -12
JAFFREY NH     PTCLDY     2 -10  57 NW10G22   30.01R WCI -14
KEENE NH       CLEAR      3  -9  55 CALM      30.08S
BURLINGTON VT  CLOUDY     4  -7  60 NW6       30.14S WCI  -7
MT. WASHINGTON BLWGSNOW -22 -22 100 W67         N/A  VSB 1/16WCI -66
$$

NYZ052-076-120900-
EASTERN NEW YORK

CITY           SKY/WX    TMP DP  RH WIND       PRES   REMARKS
ALBANY         PTCLDY     5  -5  63 W5        30.19R WCI  -4
NEW YORK CITY  CLEAR     19   2  47 NW16G25   30.24R WCI   4
$$

ANZALL-120900-
MARINE OBSERVATIONS

STATION/POSITION TIME  TEMP    WIND        PRES    VSBY  WAVE
                       AIR SEA DIR/SP/G                  HT/PER
                 (UTC) (F)     (DEG/KT/KT) (MB)    (MI)  (FT/S)
BOSTON BUOY      0750   13 40  310/ 25/ 31 1018.3R         4/ 5
BUZZARDS BAY     0800          300/ 26/ 30 1021.3R
NANTUCKET SOUND  0750   17 39  300/ 23/ 31 1018.8R         4/ 5
MASS BAY-STELLWA NOT AVBL
ISLE OF SHOALS   0800    7     290/ 24/ 31 1017.2R
S OF BLOCK IS    NOT AVBL
$$

......................KEY.........................
  SKY/WX - SKY CONDITION/PRESENT WEATHER
  TMP    - TEMPERATURE IN FAHRENHEIT
  DWPT   - DEWPOINT IN FAHRENHEIT
  RH     - RELATIVE HUMIDITY IN PERCENT
  WIND   - DIRECTION AND SPEED IN MPH
  PRES   - MEAN SEA LEVEL PRESSURE IN INCHES OF HG
  WCI    - WIND CHILL INDEX
  VSB    - VISIBILITY IN MILES
  HX     - HEAT INDEX
  TC     - TEMPERATURE IN CELSIUS
  VRB    - VARIABLE WIND DIRECTION
  N/A    - NOT AVAILABLE




USA.gov is the U.S. government's official web portal to all federal, state and local government web resources and services.